Date String (YYYY-MM-DD hh:mm:ss) UTC,Instrument flags,Ambient pressure (hPa),Sample flow (lpm),Bypass flow (lpm),Sample temperature (°C),Ambient temperature (°C),ASC tube jacket temperature (°C),LED temperature (°C),Box temperature (°C),Sample RH (%),Mass concentration (μg/m³),Mass concentration (μg/m³)
DateTimeUTC,F1_M11,P_M11,Q1_M11,Q2_M11,T1_M11,T2_M11,T3_M11,T4_M11,T5_M11,U1_M11,X0_M11,X2_M11
2021-08-19 08:00:00,,0823.6,5.00,0.00,29.5,26.4,00.0,38.6,30.9,30.1,0025.80,0014.93
2021-08-19 08:01:00,,0823.5,4.99,0.00,29.4,26.7,00.0,38.6,31.0,31.0,0025.77,0014.84
2021-08-19 08:02:00,,0823.5,5.01,0.00,29.4,27.0,00.0,38.6,31.0,31.6,0026.47,0014.77
2021-08-19 08:03:00,,0823.4,5.00,0.00,29.4,27.4,00.0,38.5,31.1,31.9,0026.71,0014.64
2021-08-19 08:04:00,,0823.4,5.00,0.00,29.4,27.7,00.0,38.5,31.2,32.0,0026.61,0014.53
2021-08-19 08:05:00,,0823.4,5.01,0.00,29.5,27.9,00.0,38.5,31.2,32.1,0026.57,0014.41
2021-08-19 08:06:00,,0823.4,5.00,0.00,29.5,28.1,00.0,38.5,31.3,32.2,0026.75,0014.41
2021-08-19 08:07:00,,0823.4,4.99,0.00,29.5,28.3,00.0,38.6,31.3,32.2,0027.57,0014.37
2021-08-19 08:08:00,,0823.5,5.01,0.00,29.6,28.4,00.0,38.6,31.4,32.2,0027.59,0014.33
2021-08-19 08:09:00,,0823.5,4.99,0.00,29.6,28.5,00.0,38.6,31.4,32.1,0028.46,0014.31
2021-08-19 08:10:00,,0823.6,5.00,0.00,29.6,28.6,00.0,38.6,31.5,32.0,0028.17,0014.41
2021-08-19 08:11:00,,0823.5,5.01,0.00,29.7,28.7,00.0,38.6,31.5,32.0,0029.88,0014.48
2021-08-19 08:12:00,,0823.6,4.99,0.00,29.7,28.8,00.0,38.6,31.5,32.0,0030.74,0014.63
2021-08-19 08:13:00,,0823.6,5.01,0.00,29.7,28.8,00.0,38.7,31.6,32.0,0030.89,0014.80
2021-08-19 08:14:00,,0823.7,5.00,0.00,29.7,28.4,00.0,38.7,31.5,31.6,0031.08,0014.87
2021-08-19 08:15:00,,0823.6,4.98,0.00,29.6,26.7,00.0,38.7,31.1,32.1,0033.11,0015.01
2021-08-19 08:16:00,,0823.6,5.00,0.00,29.5,26.3,00.0,38.7,30.9,32.5,0033.87,0015.12
2021-08-19 08:17:00,,0823.6,5.00,0.00,29.4,26.7,00.0,38.6,30.9,32.7,0034.80,0015.13
2021-08-19 08:18:00,,0823.5,5.00,0.00,29.4,27.0,00.0,38.6,31.0,32.8,0034.81,0015.15
2021-08-19 08:19:00,,0823.5,5.00,0.00,29.4,27.4,00.0,38.6,31.1,33.2,0034.28,0015.19
2021-08-19 08:20:00,,0823.6,5.00,0.00,29.4,27.7,00.0,38.6,31.2,33.4,0033.67,0015.20
2021-08-19 08:21:00,,0823.6,5.00,0.00,29.5,27.9,00.0,38.6,31.2,33.4,0033.38,0015.14
2021-08-19 08:22:00,,0823.7,5.01,0.00,29.5,28.1,00.0,38.6,31.3,33.4,0032.17,0014.99
2021-08-19 08:23:00,,0823.7,5.00,0.00,29.5,28.2,00.0,38.6,31.3,33.2,0031.24,0014.87
2021-08-19 08:24:00,,0823.7,4.99,0.00,29.6,28.4,00.0,38.6,31.4,33.1,0031.08,0014.73
2021-08-19 08:25:00,,0823.7,5.01,0.00,29.6,28.5,00.0,38.6,31.4,33.3,0031.16,0014.75
2021-08-19 08:26:00,,0823.6,4.99,0.00,29.6,28.6,00.0,38.6,31.4,33.3,0030.07,0014.68
2021-08-19 08:27:00,,0823.7,5.01,0.00,29.7,28.6,00.0,38.6,31.5,33.2,0030.44,0014.66
2021-08-19 08:28:00,,0823.7,4.99,0.00,29.7,28.7,00.0,38.7,31.5,33.0,0030.70,0014.75
2021-08-19 08:29:00,,0823.7,5.01,0.00,29.7,28.8,00.0,38.7,31.5,33.0,0030.74,0014.79
2021-08-19 08:30:00,,0823.7,5.00,0.00,29.7,28.3,00.0,38.7,31.4,33.0,0030.73,0014.78
2021-08-19 08:31:00,,0823.7,5.00,0.00,29.6,26.7,00.0,38.7,30.9,33.2,0031.06,0014.82
2021-08-19 08:32:00,,0823.7,5.00,0.00,29.5,26.3,00.0,38.7,30.9,33.4,0030.93,0014.79
2021-08-19 08:33:00,,0823.7,5.01,0.00,29.4,26.6,00.0,38.6,30.9,33.6,0030.99,0014.82
2021-08-19 08:34:00,,0823.7,4.99,0.00,29.4,27.0,00.0,38.6,31.0,33.7,0032.46,0014.88
2021-08-19 08:35:00,,0823.8,4.99,0.00,29.4,27.3,00.0,38.6,31.1,33.8,0033.37,0014.95
2021-08-19 08:36:00,,0823.7,5.01,0.00,29.4,27.6,00.0,38.6,31.1,33.7,0034.17,0014.91
2021-08-19 08:37:00,,0823.8,5.00,0.00,29.4,27.9,00.0,38.6,31.2,33.6,0034.01,0014.94
2021-08-19 08:38:00,,0823.9,5.00,0.00,29.5,28.1,00.0,38.6,31.3,33.6,0033.25,0014.92
2021-08-19 08:39:00,,0823.9,5.00,0.00,29.5,28.2,00.0,38.6,31.3,33.6,0034.07,0014.85
2021-08-19 08:40:00,,0823.8,5.00,0.00,29.5,28.4,00.0,38.6,31.4,33.6,0033.45,0014.78
2021-08-19 08:41:00,,0823.8,5.01,0.00,29.6,28.5,00.0,38.6,31.4,33.5,0033.80,0014.72
2021-08-19 08:42:00,,0823.8,5.00,0.00,29.6,28.6,00.0,38.6,31.4,33.4,0033.75,0014.66
2021-08-19 08:43:00,,0823.8,5.00,0.00,29.6,28.7,00.0,38.6,31.5,33.3,0033.48,0014.62
2021-08-19 08:44:00,,0823.8,5.01,0.00,29.7,28.7,00.0,38.7,31.5,33.3,0032.60,0014.54
2021-08-19 08:45:00,,0823.8,4.99,0.00,29.7,28.8,00.0,38.7,31.6,33.2,0031.72,0014.52
2021-08-19 08:46:00,,0823.8,5.02,0.00,29.7,28.9,00.0,38.7,31.6,33.1,0030.61,0014.45
2021-08-19 08:47:00,,0823.8,5.00,0.00,29.8,28.5,00.0,38.7,31.5,33.1,0029.36,0014.40
2021-08-19 08:48:00,,0823.8,5.00,0.00,29.7,27.0,00.0,38.7,31.1,33.3,0029.09,0014.40
2021-08-19 08:49:00,,0823.8,5.00,0.00,29.5,26.4,00.0,38.7,30.9,33.6,0029.06,0014.38
2021-08-19 08:50:00,,0823.7,5.01,0.00,29.5,26.7,00.0,38.7,31.0,34.1,0027.91,0014.29
2021-08-19 08:51:00,,0823.7,5.01,0.00,29.4,27.0,00.0,38.6,31.0,34.3,0028.34,0014.28
2021-08-19 08:52:00,,0823.7,5.00,0.00,29.4,27.4,00.0,38.6,31.1,34.2,0027.50,0014.23
2021-08-19 08:53:00,,0823.7,5.00,0.00,29.4,27.7,00.0,38.6,31.2,34.1,0026.66,0014.22
2021-08-19 08:54:00,,0823.7,5.00,0.00,29.5,27.9,00.0,38.6,31.3,33.9,0026.29,0014.17
2021-08-19 08:55:00,,0823.8,5.00,0.00,29.5,28.1,00.0,38.6,31.3,33.8,0026.43,0014.20
2021-08-19 08:56:00,,0823.8,5.00,0.00,29.5,28.3,00.0,38.6,31.4,33.7,0025.99,0014.19
2021-08-19 08:57:00,,0823.8,5.01,0.00,29.6,28.4,00.0,38.6,31.4,33.6,0025.42,0014.12
2021-08-19 08:58:00,,0823.8,4.99,0.00,29.6,28.5,00.0,38.6,31.4,33.4,0025.25,0014.10
2021-08-19 08:59:00,,0823.8,5.01,0.00,29.6,28.6,00.0,38.7,31.5,33.3,0025.07,0014.07
